GW3385 Weather Reports


time (UTC)temp
C
wind
direction
speed
KPH
gust
KPH
rain 1hr
cm
rain 24hr
cm
rain mn
cm
humidity
%
barometer
mb
20260508203054 18 184 6.4 20.9 0.00 0.00 0.00 78 1014.0
20260508202555 18 281 11.3 20.9 0.00 0.00 0.00 78 1014.1
20260508202054 19 228 9.7 19.3 0.00 0.00 0.00 77 1014.3
20260508201554 19 213 8.0 16.1 0.00 0.00 0.00 76 1014.3
20260508201054 19 273 8.0 14.5 0.00 0.00 0.00 78 1014.3
20260508200554 19 159 8.0 17.7 0.00 0.00 0.00 77 1014.4
20260508200053 19 234 8.0 17.7 0.00 0.00 0.00 76 1014.3
20260508195551 19 195 8.0 16.1 0.00 0.00 0.00 77 1014.3
20260508195051 19 223 6.4 14.5 0.00 0.00 0.00 77 1014.5
20260508194556 19 221 6.4 17.7 0.00 0.00 0.00 78 1014.5
20260508194050 19 179 6.4 20.9 0.00 0.00 0.00 77 1014.5
20260508193551 19 252 6.4 20.9 0.00 0.00 0.00 77 1014.7
20260508193105 19 269 6.4 19.3 0.00 0.00 0.00 77 1014.6
20260508192551 19 229 6.4 19.3 0.00 0.00 0.00 77 1014.6
20260508192059 18 170 8.0 16.1 0.00 0.00 0.00 78 1014.7
20260508191603 18 195 8.0 16.1 0.00 0.00 0.00 77 1014.9
20260508191058 18 175 3.2 16.1 0.00 0.00 0.00 77 1014.7
20260508190555 18 274 8.0 16.1 0.00 0.00 0.00 77 1014.8
20260508190110 19 182 6.4 12.9 0.00 0.00 0.00 77 1014.8
20260508185558 18 226 1.6 14.5 0.00 0.00 0.00 78 1014.8
20260508185055 18 210 6.4 14.5 0.00 0.00 0.00 77 1015.0
20260508184603 18 267 4.8 11.3 0.00 0.00 0.00 77 1015.0
20260508184054 18 182 4.8 17.7 0.00 0.00 0.00 77 1015.0
20260508183551 18 217 6.4 17.7 0.00 0.00 0.00 77 1015.1
20260508183112 18 225 3.2 11.3 0.00 0.00 0.00 77 1015.1
20260508182551 18 184 3.2 11.3 0.00 0.00 0.00 77 1015.0
20260508182055 18 189 3.2 11.3 0.00 0.00 0.00 78 1015.0
20260508181603 18 0 3.2 9.7 0.00 0.00 0.00 78 1015.1
20260508181054 18 221 1.6 9.7 0.00 0.00 0.00 78 1015.2
20260508180556 18 0 3.2 12.9 0.00 0.00 0.00 79 1015.3
20260508180116 18 240 3.2 12.9 0.00 0.00 0.00 78 1015.3
20260508175551 18 166 3.2 11.3 0.00 0.00 0.00 78 1015.3
20260508175054 18 0 0.0 6.4 0.00 0.00 0.00 79 1015.3
20260508174611 17 252 0.0 8.0 0.00 0.00 0.00 80 1015.3
20260508174054 17 227 3.2 9.7 0.00 0.00 0.00 79 1015.3
20260508173555 17 167 1.6 9.7 0.00 0.00 0.00 80 1015.4
20260508173054 17 200 1.6 9.7 0.00 0.00 0.00 80 1015.4
20260508172554 17 0 1.6 11.3 0.00 0.00 0.00 80 1015.4
20260508172054 17 73 3.2 11.3 0.00 0.00 0.00 80 1015.5
20260508171554 17 0 3.2 11.3 0.00 0.00 0.00 81 1015.5
20260508171058 17 103 3.2 11.3 0.00 0.00 0.00 82 1015.5
20260508170555 17 0 1.6 11.3 0.00 0.00 0.00 82 1015.6
20260508170106 16 90 4.8 11.3 0.00 0.00 0.00 82 1015.5
20260508165554 17 239 4.8 9.7 0.00 0.00 0.00 81 1015.4
20260508165055 17 104 3.2 6.4 0.00 0.00 0.00 82 1015.4
20260508164557 17 101 0.0 4.8 0.00 0.00 0.00 82 1015.4
20260508164055 16 126 1.6 6.4 0.00 0.00 0.00 82 1015.4
20260508163558 16 103 1.6 6.4 0.00 0.00 0.00 83 1015.4
20260508163054 16 84 0.0 6.4 0.00 0.00 0.00 83 1015.4
20260508162555 16 0 1.6 6.4 0.00 0.00 0.00 84 1015.3
20260508162056 16 0 0.0 4.8 0.00 0.00 0.00 84 1015.3
20260508161605 16 0 1.6 4.8 0.00 0.00 0.00 84 1015.3
20260508161052 16 344 0.0 6.4 0.00 0.00 0.00 85 1015.3
20260508160556 16 0 1.6 6.4 0.00 0.00 0.00 85 1015.3
20260508160055 16 0 1.6 6.4 0.00 0.00 0.00 85 1015.3
20260508155551 16 38 0.0 3.2 0.00 0.00 0.00 85 1015.3
20260508155051 16 338 0.0 4.8 0.00 0.00 0.00 85 1015.3
20260508154553 16 183 1.6 4.8 0.00 0.00 0.00 86 1015.3
20260508154050 16 0 0.0 6.4 0.00 0.00 0.00 86 1015.3
20260508153552 16 291 1.6 6.4 0.00 0.00 0.00 86 1015.3
20260508153058 16 296 0.0 6.4 0.00 0.00 0.00 86 1015.4
20260508152554 16 296 0.0 6.4 0.00 0.00 0.00 86 1015.3
20260508152054 15 0 0.0 6.4 0.00 0.00 0.00 86 1015.4
20260508151555 15 9 3.2 6.4 0.00 0.00 0.00 86 1015.4
20260508151052 15 0 0.0 8.0 0.00 0.00 0.00 86 1015.4
20260508150552 15 0 0.0 8.0 0.00 0.00 0.00 86 1015.5
20260508150056 15 0 0.0 8.0 0.00 0.00 0.00 86 1015.4
20260508145551 15 0 0.0 8.0 0.00 0.00 0.00 86 1015.4
20260508145054 15 88 3.2 8.0 0.00 0.00 0.00 86 1015.4
20260508144557 15 83 0.0 6.4 0.00 0.00 0.00 86 1015.4
20260508144053 15 0 1.6 6.4 0.00 0.00 0.00 86 1015.5
20260508143551 15 0 0.0 4.8 0.00 0.00 0.00 87 1015.5
20260508143102 15 13 1.6 6.4 0.00 0.00 0.00 86 1015.5
20260508142554 15 0 0.0 6.4 0.00 0.00 0.00 87 1015.4
20260508142055 15 145 1.6 4.8 0.00 0.00 0.00 87 1015.6
20260508141605 15 0 0.0 9.7 0.00 0.00 0.00 87 1015.6
20260508141055 15 0 0.0 9.7 0.00 0.00 0.00 88 1015.4
20260508140554 15 103 3.2 6.4 0.00 0.00 0.00 87 1015.3
20260508140057 15 81 0.0 3.2 0.00 0.00 0.00 88 1015.2
20260508135554 15 0 0.0 4.8 0.00 0.00 0.00 88 1015.2
20260508135054 15 0 0.0 6.4 0.00 0.00 0.00 88 1015.3
20260508134559 15 0 0.0 6.4 0.00 0.00 0.00 88 1015.2
20260508134054 15 0 1.6 6.4 0.00 0.00 0.00 88 1015.3
20260508133554 15 0 0.0 8.0 0.00 0.00 0.00 88 1015.2
20260508133101 15 0 3.2 8.0 0.00 0.00 0.00 88 1015.1
20260508132554 15 82 1.6 6.4 0.00 0.00 0.00 88 1015.1
20260508132054 15 0 0.0 6.4 0.00 0.00 0.00 88 1015.1
20260508131608 15 105 1.6 6.4 0.00 0.00 0.00 88 1015.1
20260508131051 15 84 1.6 6.4 0.00 0.00 0.00 88 1015.2
20260508130559 15 0 1.6 6.4 0.00 0.00 0.00 88 1014.9
20260508130058 15 57 0.0 6.4 0.00 0.00 0.00 88 1014.9
20260508125558 15 0 0.0 3.2 0.00 0.00 0.00 88 1014.8
20260508125055 15 0 0.0 9.7 0.00 0.00 0.00 88 1014.7
20260508124557 15 85 0.0 9.7 0.00 0.00 0.00 89 1014.6
20260508124054 15 113 1.6 8.0 0.00 0.00 0.00 89 1014.7
20260508123554 15 79 3.2 8.0 0.00 0.00 0.00 89 1014.5
20260508123113 15 132 3.2 8.0 0.00 0.00 0.00 89 1014.5
20260508122555 15 57 0.0 6.4 0.00 0.00 0.00 89 1014.5
20260508122051 15 61 1.6 6.4 0.00 0.00 0.00 89 1014.4
20260508121607 15 0 0.0 6.4 0.00 0.00 0.00 89 1014.4
20260508121050 15 63 0.0 6.4 0.00 0.00 0.00 89 1014.4
20260508120554 15 69 0.0 4.8 0.00 0.00 0.00 89 1014.4
20260508120107 15 51 0.0 4.8 0.00 0.00 0.00 89 1014.4
20260508115551 15 0 0.0 4.8 0.00 0.00 0.00 89 1014.4
20260508115054 15 86 0.0 9.7 0.00 0.00 0.00 89 1014.5
20260508114600 15 0 1.6 9.7 0.00 0.00 0.00 89 1014.3
20260508114058 15 82 1.6 6.4 0.00 0.00 0.00 89 1014.3
20260508113558 15 99 1.6 6.4 0.00 0.00 0.00 89 1014.3
20260508113111 15 78 0.0 4.8 0.00 0.00 0.00 89 1014.3
20260508112554 15 0 0.0 3.2 0.00 0.00 0.00 89 1014.3
20260508112057 15 0 0.0 3.2 0.00 0.00 0.00 89 1014.4
20260508111553 15 0 0.0 3.2 0.00 0.00 0.00 89 1014.3
20260508111056 15 0 0.0 8.0 0.00 0.00 0.00 88 1014.3
20260508110556 15 51 1.6 8.0 0.00 0.00 0.00 88 1014.2
20260508110107 15 69 4.8 8.0 0.00 0.00 0.00 88 1014.3
20260508105557 15 75 0.0 6.4 0.00 0.00 0.00 89 1014.2
20260508105056 15 0 1.6 6.4 0.00 0.00 0.00 89 1014.2
20260508104557 15 175 0.0 6.4 0.00 0.00 0.00 89 1014.2
20260508104056 15 0 0.0 6.4 0.00 0.00 0.00 89 1014.3
20260508103559 15 0 1.6 6.4 0.00 0.00 0.00 89 1014.2
20260508103102 15 72 0.0 6.4 0.00 0.00 0.00 89 1014.2
20260508102556 15 0 0.0 6.4 0.00 0.00 0.00 89 1014.2
20260508102056 15 80 1.6 4.8 0.00 0.00 0.00 89 1014.2
20260508101556 15 0 1.6 4.8 0.00 0.00 0.00 89 1014.3
20260508101056 15 0 0.0 3.2 0.00 0.00 0.00 89 1014.3
20260508100556 15 51 0.0 4.8 0.00 0.00 0.00 89 1014.2
20260508100055 15 0 1.6 4.8 0.00 0.00 0.00 89 1014.3
20260508095557 15 0 0.0 4.8 0.00 0.00 0.00 89 1014.2
20260508095057 15 57 1.6 4.8 0.00 0.00 0.00 89 1014.3
20260508094557 15 61 1.6 4.8 0.00 0.00 0.00 89 1014.4
20260508094056 15 0 0.0 4.8 0.00 0.00 0.00 89 1014.4
20260508093556 15 51 1.6 4.8 0.00 0.00 0.00 89 1014.4
20260508093105 15 0 0.0 3.2 0.00 0.00 0.00 89 1014.4
20260508092556 15 0 0.0 3.2 0.00 0.00 0.00 89 1014.4
20260508092056 15 0 0.0 4.8 0.00 0.00 0.00 89 1014.4
20260508091556 15 0 0.0 4.8 0.00 0.00 0.00 89 1014.5
20260508091057 15 0 0.0 4.8 0.00 0.00 0.00 89 1014.5
20260508090557 15 0 0.0 3.2 0.00 0.00 0.00 89 1014.6
20260508090106 15 324 0.0 0.0 0.00 0.00 0.00 89 1014.5
20260508085556 15 0 0.0 4.8 0.00 0.00 0.00 89 1014.5
20260508085056 15 0 0.0 4.8 0.00 0.00 0.00 89 1014.5
20260508084559 15 0 1.6 4.8 0.00 0.00 0.00 89 1014.6
20260508084059 15 0 0.0 4.8 0.00 0.00 0.00 89 1014.6
20260508083557 15 0 0.0 4.8 0.00 0.00 0.00 89 1014.6
20260508083104 15 282 1.6 4.8 0.00 0.00 0.00 89 1014.7
20260508082557 15 281 0.0 3.2 0.00 0.00 0.00 89 1014.7
20260508082100 15 0 0.0 6.4 0.00 0.00 0.00 89 1014.7
20260508081602 15 273 1.6 6.4 0.00 0.00 0.00 89 1014.8
20260508081056 15 271 0.0 6.4 0.00 0.00 0.00 89 1014.9
20260508080556 15 0 1.6 6.4 0.00 0.00 0.00 88 1014.9
20260508080056 15 290 3.2 6.4 0.00 0.00 0.00 88 1014.9
20260508075556 15 275 1.6 4.8 0.00 0.00 0.00 88 1015.1
20260508075056 15 306 0.0 4.8 0.00 0.00 0.00 88 1015.1
20260508074556 15 0 0.0 3.2 0.00 0.00 0.00 88 1015.0
20260508074058 15 0 0.0 6.4 0.00 0.00 0.00 88 1015.0
20260508073556 15 85 0.0 6.4 0.00 0.00 0.00 89 1015.1
20260508073102 15 0 0.0 6.4 0.00 0.00 0.00 89 1015.1
20260508072556 15 131 1.6 6.4 0.00 0.00 0.00 89 1015.1
20260508072056 15 74 1.6 4.8 0.00 0.00 0.00 89 1015.1
20260508071555 15 70 0.0 6.4 0.00 0.00 0.00 89 1015.1
20260508071055 15 72 1.6 6.4 0.00 0.00 0.00 88 1015.0
20260508070600 15 68 1.6 4.8 0.00 0.00 0.00 88 1015.0
20260508070057 15 78 0.0 6.4 0.00 0.00 0.00 89 1015.0
20260508065557 15 193 0.0 6.4 0.00 0.00 0.00 89 1015.0
20260508065059 15 49 3.2 6.4 0.00 0.00 0.00 88 1014.9
20260508064608 15 98 0.0 6.4 0.00 0.00 0.00 89 1014.9
20260508064057 15 78 0.0 3.2 0.00 0.00 0.00 89 1015.0
20260508063557 15 0 0.0 3.2 0.00 0.00 0.00 89 1015.0
20260508063104 15 0 0.0 0.0 0.00 0.00 0.00 89 1015.0
20260508062600 15 0 0.0 3.2 0.00 0.00 0.00 89 1014.9
20260508062057 15 0 0.0 8.0 0.00 0.00 0.00 88 1014.9
20260508061559 15 0 0.0 11.3 0.00 0.00 0.00 88 1014.7
20260508061057 15 0 1.6 11.3 0.00 0.00 0.00 88 1014.8
20260508060558 15 170 3.2 9.7 0.00 0.00 0.00 88 1014.7
20260508055557 15 173 1.6 6.4 0.00 0.00 0.00 88 1014.7
20260508055056 15 103 0.0 4.8 0.00 0.00 0.00 88 1014.7
20260508054556 15 0 0.0 6.4 0.00 0.00 0.00 88 1014.8
20260508054056 15 0 3.2 9.7 0.00 0.00 0.00 87 1014.9
20260508053557 15 176 1.6 9.7 0.00 0.00 0.00 88 1014.9
20260508053107 15 170 0.0 8.0 0.00 0.00 0.00 88 1014.9
20260508052556 15 269 1.6 8.0 0.00 0.00 0.00 88 1014.8
20260508052058 15 0 0.0 6.4 0.00 0.00 0.00 89 1014.8
20260508051556 15 279 1.6 6.4 0.00 0.00 0.00 89 1014.8
20260508051057 15 251 0.0 6.4 0.00 0.00 0.00 89 1014.8
20260508050557 15 0 0.0 6.4 0.00 0.00 0.00 89 1014.8
20260508050055 15 198 0.0 6.4 0.00 0.00 0.00 89 1014.8
20260508045556 15 289 1.6 8.0 0.00 0.00 0.00 88 1014.7
20260508045055 15 0 1.6 8.0 0.00 0.00 0.00 89 1014.7
20260508044554 15 0 1.6 6.4 0.00 0.00 0.00 89 1014.6
20260508044056 15 277 1.6 6.4 0.00 0.00 0.00 89 1014.5
20260508043554 15 0 0.0 6.4 0.00 0.00 0.00 88 1014.4
20260508043100 15 213 1.6 6.4 0.00 0.00 0.00 88 1014.4
20260508042554 15 0 0.0 6.4 0.00 0.00 0.00 88 1014.4
20260508042054 15 0 0.0 8.0 0.00 0.00 0.00 88 1014.4
20260508041601 15 279 1.6 8.0 0.00 0.00 0.00 88 1014.2
20260508041055 15 269 3.2 8.0 0.00 0.00 0.00 87 1014.2
20260508040551 15 281 1.6 8.0 0.00 0.00 0.00 87 1014.1
20260508040100 15 273 3.2 11.3 0.00 0.00 0.00 87 1014.0
20260508035555 15 224 1.6 11.3 0.00 0.00 0.00 87 1014.2
20260508035051 15 207 4.8 11.3 0.00 0.00 0.00 87 1014.0
20260508034612 15 140 1.6 9.7 0.00 0.00 0.00 87 1013.9
20260508034056 15 200 4.8 9.7 0.00 0.00 0.00 87 1013.9
20260508033554 15 269 1.6 6.4 0.00 0.00 0.00 88 1013.8
20260508033057 15 275 1.6 6.4 0.00 0.00 0.00 88 1013.7
20260508032555 15 252 1.6 4.8 0.00 0.00 0.00 88 1013.7
20260508032055 15 0 0.0 4.8 0.00 0.00 0.00 88 1013.7
20260508031556 15 286 0.0 6.4 0.00 0.00 0.00 88 1013.6
20260508031055 15 223 0.0 8.0 0.00 0.00 0.00 88 1013.6
20260508030555 15 225 3.2 8.0 0.00 0.00 0.00 88 1013.6
20260508030103 15 0 4.8 12.9 0.00 0.00 0.00 87 1013.4
20260508025555 15 315 4.8 12.9 0.00 0.00 0.00 87 1013.4
20260508025054 15 238 4.8 12.9 0.00 0.00 0.00 87 1013.4
20260508024558 15 208 6.4 12.9 0.00 0.00 0.00 86 1013.4
20260508024055 15 178 4.8 14.5 0.00 0.00 0.00 86 1013.4
20260508023555 15 213 4.8 14.5 0.00 0.00 0.00 85 1013.3
20260508023059 16 204 8.0 14.5 0.00 0.00 0.00 84 1013.4
20260508022555 16 226 3.2 12.9 0.00 0.00 0.00 84 1013.3
20260508022055 16 261 3.2 11.3 0.00 0.00 0.00 84 1013.2
20260508021601 16 203 4.8 11.3 0.00 0.00 0.00 83 1013.1
20260508021054 16 234 4.8 11.3 0.00 0.00 0.00 83 1013.2
20260508020551 16 198 3.2 16.1 0.00 0.00 0.00 82 1013.1
20260508015556 16 0 4.8 12.9 0.00 0.00 0.00 82 1012.9
20260508015054 16 229 4.8 12.9 0.00 0.00 0.00 82 1012.9
20260508014557 16 227 6.4 16.1 0.00 0.00 0.00 82 1012.9
20260508014051 16 221 6.4 16.1 0.00 0.00 0.00 83 1012.9
20260508013551 16 188 6.4 16.1 0.00 0.00 0.00 83 1012.9
20260508013100 16 281 11.3 17.7 0.00 0.00 0.00 82 1012.8
20260508012555 17 244 11.3 17.7 0.00 0.00 0.00 81 1012.9
20260508012054 17 283 6.4 16.1 0.00 0.00 0.00 81 1012.8
20260508011558 17 179 6.4 16.1 0.00 0.00 0.00 81 1012.9
20260508011054 17 213 9.7 16.1 0.00 0.00 0.00 80 1013.0
20260508010554 17 267 8.0 16.1 0.00 0.00 0.00 78 1012.9
20260508010056 17 254 8.0 17.7 0.00 0.00 0.00 78 1012.9
20260508005558 17 264 4.8 17.7 0.00 0.00 0.00 77 1012.9
20260508005057 18 277 11.3 22.5 0.00 0.00 0.00 76 1013.0
20260508004556 18 234 9.7 22.5 0.00 0.00 0.00 74 1012.9
20260508004059 18 123 6.4 16.1 0.00 0.00 0.00 74 1012.9
20260508003551 18 186 8.0 16.1 0.00 0.00 0.00 73 1012.9
20260508003055 18 135 6.4 17.7 0.00 0.00 0.00 73 1012.8
20260508002555 18 191 8.0 20.9 0.00 0.00 0.00 73 1012.8
20260508002055 18 180 9.7 20.9 0.00 0.00 0.00 72 1012.8
20260508001612 18 164 8.0 16.1 0.00 0.00 0.00 72 1012.8
20260508001054 18 304 6.4 20.9 0.00 0.00 0.00 73 1012.8
20260508000556 18 279 9.7 20.9 0.00 0.00 0.00 72 1012.9
20260508000053 19 277 6.4 17.7 0.00 0.00 0.00 72 1012.9
20260507235557 19 212 4.8 16.1 0.00 0.00 0.00 73 1012.9
20260507235054 18 234 8.0 19.3 0.00 0.00 0.00 73 1012.9
20260507234557 18 196 6.4 20.9 0.00 0.00 0.00 75 1012.9
20260507234106 18 260 12.9 20.9 0.00 0.00 0.00 74 1013.0
20260507233555 18 274 11.3 19.3 0.00 0.00 0.00 74 1013.1
20260507233054 18 240 11.3 19.3 0.00 0.00 0.00 73 1013.1
20260507232555 18 267 8.0 20.9 0.00 0.00 0.00 74 1013.0
20260507232054 19 311 9.7 20.9 0.00 0.00 0.00 74 1013.1
20260507231556 19 196 8.0 16.1 0.00 0.00 0.00 74 1013.1
20260507231055 19 182 4.8 16.1 0.00 0.00 0.00 75 1013.1
20260507230555 18 312 4.8 16.1 0.00 0.00 0.00 76 1013.1
20260507230054 18 279 8.0 22.5 0.00 0.00 0.00 76 1013.3
20260507225555 18 288 9.7 22.5 0.00 0.00 0.00 77 1013.3
20260507225055 18 161 11.3 17.7 0.00 0.00 0.00 75 1013.2
20260507224558 18 166 9.7 19.3 0.00 0.00 0.00 76 1013.3
20260507224054 19 257 8.0 19.3 0.00 0.00 0.00 76 1013.3
20260507223554 19 218 9.7 20.9 0.00 0.00 0.00 76 1013.4
20260507223053 19 207 8.0 20.9 0.00 0.00 0.00 76 1013.4
20260507222553 19 281 8.0 25.7 0.00 0.00 0.00 74 1013.4
20260507222054 19 267 8.0 25.7 0.00 0.00 0.00 75 1013.4
20260507221554 19 183 9.7 22.5 0.00 0.00 0.00 73 1013.5
20260507221055 19 267 9.7 22.5 0.00 0.00 0.00 75 1013.5
20260507220556 19 265 9.7 27.4 0.00 0.00 0.00 74 1013.5
20260507220054 18 263 14.5 27.4 0.00 0.00 0.00 75 1013.6
20260507215555 18 265 9.7 20.9 0.00 0.00 0.00 74 1013.6
20260507215055 19 269 11.3 20.9 0.00 0.00 0.00 73 1013.7
20260507214600 19 261 14.5 22.5 0.00 0.00 0.00 72 1013.7
20260507214054 19 253 8.0 22.5 0.00 0.00 0.00 73 1013.8
20260507213556 19 271 11.3 24.1 0.00 0.00 0.00 73 1013.8
20260507213056 18 265 16.1 24.1 0.00 0.00 0.00 74 1013.9
20260507212553 19 220 8.0 19.3 0.00 0.00 0.00 74 1013.9
20260507212051 19 225 8.0 19.3 0.00 0.00 0.00 74 1013.9
20260507211555 19 291 11.3 19.3 0.00 0.00 0.00 73 1013.9
20260507211054 19 265 11.3 19.3 0.00 0.00 0.00 74 1014.0
20260507210558 19 264 8.0 19.3 0.00 0.00 0.00 74 1014.0
20260507210055 19 215 9.7 19.3 0.00 0.00 0.00 74 1014.1
20260507205555 19 171 9.7 20.9 0.00 0.00 0.00 72 1014.2
20260507205055 19 221 11.3 25.7 0.00 0.00 0.00 73 1014.2
20260507204558 19 192 12.9 25.7 0.00 0.00 0.00 73 1014.2
20260507204054 20 132 14.5 20.9 0.00 0.00 0.00 72 1014.1
20260507203555 20 208 6.4 22.5 0.00 0.00 0.00 73 1014.2